www.pogodaiklimat.ru

ПОГОДА в Монетте, MO

  • Прогноз погоды в Монетте
  • Монитор погоды в Монетте
  • Климат в Монетте

АРХИВ ПОГОДЫ в Монетте

Время (UTC), дата Ветер
(напр.,м/с)
 
Видим.   Явления Облачность Т
(С)
Тd
(С)
f
(%)
Тe
(С)
Тes
(С)
Комфортность

P
(гПа)

Po
(гПа)
Тmin
(С)
Tmax
(С)
R
(мм)
SD
(см)
16:35 20.05 В  6
{9} 
16 км    ясно  +19.0  +13.0  68  +19  +24      967.8         
16:55 20.05 В  16 км    ясно  +19.0  +13.0  68  +19  +24      967.1         
17:15 20.05 В  6
{8} 
16 км    ясно  +19.0  +13.0  68  +19  +26      966.5         
17:35 20.05 В  6
{10} 
16 км  гроза  ясно  +19.0  +13.0  68  +19  +25      965.2         
17:55 20.05 В  6
{9} 
16 км    ясно  +19.0  +13.0  68  +19  +26      965.8         
18:15 20.05 В  5
{8} 
16 км  гроза  8/0 3600 м
[средняя] 
+19.0  +13.0  68  +20  +23      965.8         
18:35 20.05 В  н/о  гроза  н/о  +18.0  +15.0  83  +17  +17      966.1         
18:55 20.05 В  16 км  гроза  5/5 900 м
[средняя] 
+18.0  +15.0  83  +18  +23      965.5         
19:15 20.05 В  5
{8} 
16 км    5/0 3000 м
[средняя] 
+20.0  +15.0  73  +22  +26  комфорт    964.5         
19:35 20.05 В  5
{8} 
11 км  слабый дождь  8/8 540 м  +20.0  +16.0  78  +22  +24  комфорт    964.2         
19:55 20.05 В  16 км    10/8 420 м
[средняя] 
+20.0  +16.0  78  +22  +23  комфорт    962.9         
20:15 20.05 В  7
{10} 
16 км    8/8 1470 м
[средняя] 
+21.0  +17.0  78  +25  +25  комфорт    961.6         
20:35 20.05 В  7
{11} 
16 км  гроза  5/5 1410 м
[средняя] 
+22.0  +18.0  78  +27  +28  душно    960.7         
20:55 20.05 ЮВ  8
{15} 
16 км  гроза  ясно  +22.0  +17.0  73  +26  +28  душно    960.0         
21:15 20.05 ЮВ  8
{12} 
16 км    5/5 1050 м
[средняя] 
+22.0  +17.0  73  +26  +27  душно    960.0         
21:35 20.05 ЮВ  8
{14} 
16 км  гроза  8/8 1200 м
[средняя] 
+22.0  +17.0  73  +26  +26  душно    960.3         
21:55 20.05 ЮВ  8
{11} 
16 км  гроза  10/10 1140 м  +22.0  +18.0  78  +27  +27  душно    960.3         
22:15 20.05 ЮВ  7
{11} 
16 км    10/10 870 м  +22.0  +19.0  83  +27  +27  душно    959.7         
22:35 20.05 ЮВ  6
{7} 
16 км  гроза  10/10 1080 м  +21.0  +20.0  94  +26  +26  душно    959.7         
22:55 20.05 ЮВ  16 км    10/10 1140 м  +21.0  +20.0  94  +26  +26  душно    959.7         
23:15 20.05 ЮВ  5
{9} 
16 км    10/10 1020 м  +21.0  +19.0  88  +25  +25  комфорт    959.7         
23:35 20.05 ЮВ  4
{8} 
16 км    10/10 960 м  +21.0  +20.0  94  +26  +26  душно    959.4         
23:55 20.05 ЮВ  5
{10} 
16 км    8/8 960 м
[средняя] 
+21.0  +20.0  94  +26  +26  душно    959.4         
00:15 21.05 ЮВ  8
{9} 
16 км    8/8 960 м  +21.0  +20.0  94  +26  +26  душно    958.7         
00:35 21.05 ЮВ  7
{10} 
16 км    10/10 930 м  +21.0  +20.0  94  +26  +26  душно    958.1         
00:55 21.05 ЮВ  7
{10} 
16 км    8/8 930 м
[средняя] 
+21.0  +20.0  94  +26  +26  душно    958.7         
01:20 21.05 ЮВ  7
{12} 
16 км    10/5 900 м
[средняя] 
+22.0  +20.0  88  +28  +28  душно    958.7         
01:35 21.05 ЮВ  7
{10} 
16 км  гроза  8/5 1800 м
[средняя] 
+22.0  +20.0  88  +28  +28  душно    959.0         
01:55 21.05 СЗ  9
{14} 
16 км    10/5 630 м
[средняя] 
+21.0  +18.0  83  +25  +25  комфорт    962.3         
02:15 21.05 СВ  800 м  гроза с сильным дождем  10/10 210 м  +15.0  +15.0  100  +13  +13      961.9         
02:35 21.05 С  2 км  гроза с сильным дождем  10/10 150 м  +15.0  +15.0  100  +15  +15      962.6         
02:55 21.05 ЮЗ  3
{6} 
2 км  гроза с сильным дождем  10/10 150 м  +16.0  +16.0  100  +15  +15      962.9         
03:15 21.05 Ю  3 км  гроза с сильным дождем  10/10 210 м  +16.0  +16.0  100  +15  +15      963.9         
03:30 21.05 СЗ  3 км  гроза с сильным дождем  10/10 150 м  +16.0  +16.0  100  +15  +15      963.2         
03:55 21.05 СЗ  7
{9} 
11 км  гроза с дождем  10/8 270 м
[средняя] 
+16.0  +16.0  100  +14  +14      964.2         
04:15 21.05 С  16 км  гроза со слабым дождем  10/5 180 м
[средняя] 
+14.0  +14.0  100  +13  +13      963.6         
04:35 21.05 С  16 км  гроза с дождем  10/5 180 м
[средняя] 
+13.0  +13.0  100  +12  +12      963.2         
04:55 21.05 В  11 км  гроза с дождем  10/5 150 м
[средняя] 
+13.0  +13.0  100  +11  +11      963.2         
05:15 21.05 В  16 км    10/5 120 м
[средняя] 
+14.0  +14.0  100  +13  +13      963.2         
05:35 21.05 В  16 км  дождь  10/0 2400 м
[средняя] 
+14.0  +14.0  100  +13  +13      963.6         
05:55 21.05 В  16 км    10/5 90 м
[средняя] 
+15.0  +15.0  100  +15  +15      963.9         
06:15 21.05 СВ  16 км    10/5 90 м
[средняя] 
+15.0  +15.0  100  +15  +15      963.2         
06:35 21.05 С  16 км  слабый дождь  10/10 1800 м  +15.0  +15.0  100  +15  +15      963.2         
06:55 21.05 В  11 км  слабый дождь  10/10 60 м  +15.0  +15.0  100  +14  +14      962.9         
07:15 21.05 В  16 км    10/10 1800 м  +15.0  +15.0  100  +13  +13      961.9         
07:35 21.05 В  16 км    10/10 1800 м  +16.0  +16.0  100  +15  +15      961.6         
07:55 21.05 В  16 км    10/10 1500 м  +16.0  +16.0  100  +15  +15      961.6         
08:15 21.05 В  16 км  слабый дождь  10/10 1500 м  +16.0  +16.0  100  +15  +15      961.0         

 

Местоположение метеостанции Monett Municipal Airport: широта 36.9062 долгота -94.0128 высота над уровнем моря 401 м.

В архиве по умолчанию представлена погода в Монетте за последние 1-2 суток. Обновление информации о фактической погоде в базе происходит ежечасно! Архивные данные за месяц целиком и за предыдущие месяцы Вы можете получить, выбрав интересующий диапазон дат из раскрывающегося списка и нажав кнопку "Ввод!".

Внимание! Архив погоды МЕТАР в базе сайта хранится не более 60 дней. Нет смысла пытаться выбрать более раннюю дату.

Внимание! Время в таблицах - всемирное. Для получения местного времени необходимо прибавить поправку, которая в Монетте равна -6 ч.

Ветер - указаны скорость ветра в м/с и направление, откуда дует ветер: С - северный, СВ - северо-восточный, В - восточный, ЮВ - юго-восточный, Ю - южный, ЮЗ - юго-западный, З - западный, СЗ - северо-западный.
Видимость - горизонтальная дальность видимости в метрах или километрах. При видимости от 1 до 10 км при отсутствии осадков обычно наблюдается дымка, при ухудшении видимости до 1 км и менее - туман. В сухую погоду видимость может ухудшаться дымом, пылью или мглою.
Атмосферные явления - указаны явления, наблюдавшиеся в указанный момент времени.
Облачность - указаны через наклонную черту верхняя и нижняя облачность в баллах и высота нижней границы облаков в метрах. Внимание: облачность, как и прочие метеорологические величины в США измеряются автоматическими метеостанциями. Указанные значения в баллах носят условный характер и показывают процент времени, в течение которого, в среднем, лазерный луч высотомера отражался от облаков обратно.
T - Температура воздуха - температура, измеренная на высоте 2 м над землей.
Td - Температура точки росы - температура, при понижении до которой содержащийся в воздухе водяной пар достигнет насыщения.
f - Относительная влажность воздуха - влажноcть воздуха, измеренная на высоте 2 м над землей.
Te - Эффективная температура - температура, которую ощущает одетый по сезону человек в тени. Характеристика душности погоды. При расчете учитывается влияние влажности воздуха и скорости ветра на теплоощущения человека.
Tes - Эффективная температура на солнце - температура, которую ощущает человек, с поправкой на солнечный нагрев. Характеристика знойности погоды. Зависит от высоты солнца над горизонтом, облачности и скорости ветра. Ночью, в пасмурную погоду, а также при ветре 12 м/с и более поправка равна нулю.
P - Атмосферное давление - приведенное к уровню моря атмосферное давление.
Po - Атмосферное давление - измеренное на уровне метеостанции атмосферное давление.
Tmin - Минимальная температура - минимум температуры воздуха на высоте 2 м над землей.
Tmax - Максимальная температура - максимум температуры воздуха на высоте 2 м над землей.
R - Количество осадков - Количество выпавших осадков за 3 или 6 часов, мм.
SD - Снежный покров - Высота снежного покрова, см.